This is the latest recevied weather packets stored in our database for station/object WA6ODQ-13. If no packets are shown the sender has not sent any weather packets the latest 10 day(s).
| Time | Temp. | Humidity | Pressure | Rain* | Wind** | Luminosity | Snow |
|---|---|---|---|---|---|---|---|
| 1788449417 | 17.22° C | 86% | 1013.3 hPa | 0 mm | - | 33 W/m² | - |
| 1788449112 | 17.22° C | 86% | 1013.2 hPa | 0 mm | - | 35 W/m² | - |
| 1788448809 | 17.22° C | 87% | 1013.2 hPa | 0 mm | - | 44 W/m² | - |
| 1788448508 | 17.22° C | 87% | 1013.2 hPa | 0 mm | - | 47 W/m² | - |
| 1788448202 | 17.22° C | 87% | 1013.2 hPa | 0 mm | - | 46 W/m² | - |
| 1788447897 | 17.22° C | 87% | 1013.2 hPa | 0 mm | - | 43 W/m² | - |
| 1788447592 | 17.22° C | 87% | 1013.1 hPa | 0 mm | - | 42 W/m² | - |
| 1788447287 | 17.22° C | 88% | 1013.2 hPa | 0 mm | - | 40 W/m² | - |
| 1788446982 | 16.67° C | 88% | 1012.9 hPa | 0 mm | - | 32 W/m² | - |
| 1788446681 | 16.67° C | 88% | 1012.9 hPa | 0 mm | - | 26 W/m² | - |
| 1788446377 | 16.67° C | 88% | 1013.1 hPa | 0 mm | - | 21 W/m² | - |
| 1788446074 | 16.67° C | 88% | 1013 hPa | 0 mm | - | 19 W/m² | - |
| 1788445769 | 16.67° C | 88% | 1013.1 hPa | 0 mm | - | 23 W/m² | - |
| 1788445464 | 16.67° C | 88% | 1013.3 hPa | 0 mm | - | 27 W/m² | - |
| 1788445160 | 16.11° C | 88% | 1013 hPa | 0 mm | - | 20 W/m² | - |
| 1788444850 | 16.11° C | 89% | 1013 hPa | 0 mm | - | 25 W/m² | - |
| 1788444546 | 16.11° C | 89% | 1013.3 hPa | 0 mm | - | 19 W/m² | - |
| 1788444241 | 16.11° C | 89% | 1013.3 hPa | 0 mm | - | 15 W/m² | - |
| 1788443936 | 16.11° C | 89% | 1013.1 hPa | 0 mm | - | 12 W/m² | - |
| 1788443632 | 16.11° C | 89% | 1012.8 hPa | 0 mm | - | 8 W/m² | - |
| 1788443330 | 16.11° C | 89% | 1013.1 hPa | 0 mm | - | 5 W/m² | - |
| 1788443026 | 15.56° C | 89% | 1013 hPa | 0 mm | - | 3 W/m² | - |
| 1788442723 | 15.56° C | 89% | 1012.8 hPa | 0 mm | - | 2 W/m² | - |
| 1788442420 | 15.56° C | 89% | 1012.9 hPa | 0 mm | - | 1 W/m² | - |
| 1788442114 | 16.11° C | 89% | 1012.8 hPa | 0 mm | - | 0 W/m² | - |
* Rain latest hour (hover to see other rain measurements)
** Current wind speed in m/s (hover to see current wind gust speed)